Location: Berlin
(42.3812°N, 71.6370°W)
Time: 06:01:20
(UTC+00:00)

CENTAUR R/B - Pass Details

Date: 15 November 2025
Orbit: 633 x 1547 km, 63.4° (Epoch: 09 December)

Event Time Altitude Azimuth Distance (km) Brightness Sun altitude
Exits shadow 09:01:12 16° 340° (NNW) 2,870 4.7 -28.9°
Maximum altitude 09:07:13 38° 40° (NE) 2,050 4.4 -27.8°
Drops below altitude 10° 09:15:41 10° 106° (ESE) 3,695 6.5 -26.2°
Sets 09:19:08 0° 114° (ESE) 4,704 7.2 -25.6°
